Location: Trout Lake
(45.9980°N, 121.5270°W)
Time: 19:50:42
(UTC-08:00)

NOAA 6 - Pass Details

Date: 06 December 2023
Orbit: 770 x 784 km, 98.6° (Epoch: 22 February)

Event Time Altitude Azimuth Distance (km) Brightness Sun altitude
Rises 18:27:41 0° 173° (S) 3,243 7.3 -21.2°
Reaches altitude 10° 18:30:01 10° 176° (S) 2,318 6.6 -21.5°
Maximum altitude 18:35:05 64° 258° (WSW) 857 4.4 -22.4°
Drops below altitude 10° 18:40:11 10° 340° (NNW) 2,327 6.6 -23.3°
Sets 18:42:32 0° 344° (NNW) 3,257 7.4 -23.7°
